Hourly Weather Roundup
Issued by NWS Central Illinois

Home | Current Version | Previous Version | Text Only | Print | Product List | Glossary On
Versions: 1 2 3 4 5 6 7 8 9 10 11 12 13 14 15 16 17 18 19 20 21 22 23 24 25 26 27 28 29 30 31 32 33 34 35 36 37 38 39 40 41 42 43 44 45 46 47 48 49 50
000
NZUS43 KILX 292110
HWRILX

Area Weather Roundup
National Weather Service Lincoln IL
400 PM CDT SAT APR 29 2017

NOTE:  "FAIR" indicates few or no clouds below 12,000 feet, with
       no sigificant weather and/or obstructions to visibility.


CITY           SKY/WX    TMP DP  RH WIND       PRES   REMARKS
Bloomington    LGT RAIN  45  45 100 NE28G35   29.96F FOG
Champaign      CLOUDY    56  54  93 NE21G26   29.93F FOG
Danville       CLOUDY    57  56  97 NE13      29.93F FOG
Decatur        CLOUDY    56  56 100 NE24      29.86F FOG
Effingham      CLOUDY    74  68  80 E16       29.84F
Flora          MOSUNNY   78  69  74 SE18      29.84F HX  80
Galesburg      LGT SNOW  40  40  98 NE22G36   29.97F VSB 1   WCI  31
Jacksonville   TSTM      46  45  95 N26G44    29.81S
Lacon          TSTM      40  40  99 NE9G17    30.02F WCI  34
Lawrenceville  MOSUNNY   80  69  69 SE15      29.89F HX  83
Litchfield     CLOUDY    68  65  91 E22       29.74F
$$


CITY           SKY/WX    TMP DP  RH WIND       PRES   REMARKS
Lincoln        CLOUDY    48  48 100 NE21G29   29.87F
Macomb         LGT SNOW  41  41  99 NE28G36   29.96F VSB 3/4 WCI  31
Mattoon        CLOUDY    72  67  84 E12       29.86F
Mt Carmel AP   MOSUNNY   80  69  67 SE14      29.88F HX  83
Olney-Noble AP MOSUNNY   77  73  86 SE10G22   29.85F
Paris AP       CLOUDY    67  66  94 E10       29.92F
Peoria         TSTM      42  42 100 NE15G31   29.96F FOG     WCI  34
Pontiac        CLOUDY    44  44  99 NE26G32   30.01F WCI  34
Rantoul        CLOUDY    55  54  97 NE22      29.96F FOG
Robinson       MOSUNNY   76  65  68 SE13      29.90F
Springfield    LGT RAIN  51  50  96 NE16G31   29.82F FOG
Taylorville    CLOUDY    60  60 100 E15G22    29.80F FOG
$$

...REGIONAL REPORTS...


CITY           SKY/WX    TMP DP  RH WIND       PRES   REMARKS
Chicago O`Hare LGT RAIN  40  37  89 NE20G26   30.12F FOG     WCI  30
Kankakee       CLOUDY    43  41  92 NE13G25   30.07R
Moline         RAIN      42  39  89 NE15G26   30.05F FOG     WCI  34
Mount Sterling LGT RAIN  43  42  97 N26       29.88R WCI  34
Mount Vernon   MOSUNNY   79  71  76 SE13G20   29.81F HX  82
Pittsfield     RAIN      47  47  98 NE13G25   29.84F
Quincy         LGT RAIN  44  43  96 NE23G33   29.88S
Rockford       LGT RAIN  40  35  83 NE14      30.17R FOG     WCI  32
$$


CITY           SKY/WX    TMP DP  RH WIND       PRES   REMARKS
Burlington     RAIN      42  32  67 NE23G33   29.99F WCI  33
Cedar Rapids   LGT RAIN  43  40  89 NE20G28   30.08F WCI  34
Des Moines     CLOUDY    44  39  82 NE20G26   30.05F
Kirksville     CLOUDY    43  30  60 NE18      29.95S WCI  35
Ottumwa        LGT RAIN  44  42  93 NE17G31   30.05R
St Louis       TSTM      66  63  90 SW15      29.78R FOG
$$


CITY           SKY/WX    TMP DP  RH WIND       PRES   REMARKS
Terre Haute    MOSUNNY   74  64  71 SE10      29.92F
Evansville     CLOUDY    84  68  58 SE10      29.88F HX  87
Indianapolis   CLOUDY    74  62  66 E13       29.97F
Lafayette      CLOUDY    58  57  97 E13       29.99F
Madison        LGT RAIN  44  35  70 NE14      30.18S
Milwaukee      LGT RAIN  39  33  79 N20G36    30.17F WCI  29
$$





USA.gov is the U.S. government's official web portal to all federal, state and local government web resources and services.